Weather History for LEPA - February, 2015

Change the Weather History Date:

Monday, February 23, 2015

  Actual Average Record
Temperature  
Mean Temperature 49 °F -  
Max Temperature 66 °F 61 °F 68 °F (2007)
Min Temperature 32 °F 41 °F 30 °F (2012)
Degree Days  
Heating Degree Days 16    
Moisture  
Dew Point 46 °F    
Average Humidity 77    
Maximum Humidity 100    
Minimum Humidity 42    
Precipitation  
Precipitation 0.03 in 0.05 in - ()
Sea Level Pressure  
Sea Level Pressure 29.87 in    
Wind  
Wind Speed 6 mph ()    
Max Wind Speed 20 mph    
Max Gust Speed -    
Visibility 7.4 miles    
Events      
Averages and records for this station are not official NWS values.
T = Trace of Precipitation, MM = Missing Value Source: Averaged Metar Reports

Daily Weather History Graph

Daily Weather History Graph

Search for Another Location

Airport or City:

Trip Planner

Search our weather history database for the weather conditions in past years. The results will help you decide how hot, cold, wet, or windy it might be!

Date:

Astronomy

Feb. 23, 2015 Rise Set
Actual Time 7:31 AM CET 6:34 PM CET
Civil Twilight 7:04 AM CET 7:01 PM CET
Nautical Twilight 6:32 AM CET 7:32 PM CET
Astronomical Twilight 6:01 AM CET 8:03 PM CET
Moon 10:13 AM CET (2/23) No Moon Set
Length of Visible Light 11h 57m
Length of Day
11h 02m
Waxing Crescent, 26% of the Moon is Illuminated
Feb 23
Waxing Crescent
Feb 25
First Quarter
Mar 5
Full
Mar 13
Last Quarter
Mar 20
New

Hourly Weather History & Observations

Time (CET) Temp. Dew Point Humidity Pressure Visibility Wind Dir Wind Speed Gust Speed Precip Events Conditions
12:00 AM 34 °F 31 °F 84% 29.96 in - North 1.2 mph - -  
12:00 AM 33.8 °F 32.0 °F 93% 29.95 in 6.2 mi NE 1.2 mph - N/A   Partly Cloudy
12:30 AM 33.8 °F 32.0 °F 93% 29.95 in 6.2 mi Variable 1.2 mph - N/A   Partly Cloudy
1:00 AM 33 °F 30 °F 83% 29.96 in 9 mi Calm Calm - -   Scattered Clouds
1:00 AM 33.8 °F 32.0 °F 93% 29.95 in 6.2 mi Calm Calm - N/A   Partly Cloudy
1:30 AM 32.0 °F 30.2 °F 93% 29.92 in 6.2 mi Calm Calm - N/A   Partly Cloudy
2:00 AM 32 °F 30 °F 91% 29.94 in - North 2.3 mph - -  
2:00 AM 33.8 °F 32.0 °F 93% 29.92 in 6.2 mi NNE 1.2 mph - N/A   Partly Cloudy
2:30 AM 33.8 °F 32.0 °F 93% 29.92 in 6.2 mi Variable 1.2 mph - N/A   Partly Cloudy
3:00 AM 33 °F 31 °F 89% 29.93 in - NNW 1.2 mph - -  
3:00 AM 33.8 °F 32.0 °F 93% 29.92 in 6.2 mi Calm Calm - N/A   Partly Cloudy
3:30 AM 33.8 °F 32.0 °F 93% 29.92 in 6.2 mi ENE 2.3 mph - N/A   Partly Cloudy
4:00 AM 33 °F 31 °F 89% 29.92 in 9 mi Calm Calm - -   Scattered Clouds
4:00 AM 33.8 °F 32.0 °F 93% 29.89 in 6.2 mi Calm Calm - N/A   Partly Cloudy
4:30 AM 33.8 °F 32.0 °F 93% 29.89 in 6.2 mi Variable 1.2 mph - N/A   Partly Cloudy
5:00 AM 35 °F 34 °F 92% 29.91 in - East 3.5 mph - -  
5:00 AM 35.6 °F 33.8 °F 93% 29.89 in 6.2 mi Variable 1.2 mph - N/A   Partly Cloudy
5:30 AM 37.4 °F 37.4 °F 100% 29.89 in 6.2 mi NE 1.2 mph - N/A   Partly Cloudy
6:00 AM 51 °F 44 °F 68% 29.89 in - WSW 15.0 mph - -  
6:00 AM 51.8 °F 44.6 °F 76% 29.89 in 6.2 mi SW 12.7 mph - N/A   Partly Cloudy
6:30 AM 51.8 °F 44.6 °F 76% 29.89 in 6.2 mi SW 15.0 mph - N/A   Partly Cloudy
7:00 AM 51 °F 44 °F 69% 29.89 in 12 mi WSW 13.8 mph - -   Scattered Clouds
7:00 AM 51.8 °F 44.6 °F 76% 29.89 in 6.2 mi SW 12.7 mph - N/A   Partly Cloudy
7:30 AM 51.8 °F 44.6 °F 76% 29.89 in 6.2 mi SW 11.5 mph - N/A   Partly Cloudy
8:00 AM 53 °F 46 °F 70% 29.89 in - SW 12.7 mph - -  
8:00 AM 53.6 °F 46.4 °F 77% 29.89 in 6.2 mi SW 10.4 mph - N/A   Partly Cloudy
8:30 AM 53.6 °F 48.2 °F 82% 29.89 in 6.2 mi SW 10.4 mph - N/A   Scattered Clouds
9:00 AM 55 °F 50 °F 76% 29.90 in - WSW 12.7 mph - -  
9:00 AM 55.4 °F 50.0 °F 82% 29.89 in 6.2 mi SW 12.7 mph - N/A   Scattered Clouds
9:30 AM 57.2 °F 51.8 °F 82% 29.89 in 6.2 mi WSW 17.3 mph - N/A   Partly Cloudy
10:00 AM 61 °F 51 °F 60% 29.90 in 19 mi SW 6.9 mph - -   Scattered Clouds
10:00 AM 60.8 °F 50.0 °F 68% 29.89 in 6.2 mi SW 12.7 mph - N/A   Partly Cloudy
10:30 AM 62.6 °F 50.0 °F 63% 29.89 in 6.2 mi SW 11.5 mph - N/A   Partly Cloudy
11:00 AM 64 °F 46 °F 42% 29.89 in - WNW 12.7 mph - -  
11:00 AM 62.6 °F 48.2 °F 59% 29.89 in 6.2 mi WSW 13.8 mph - N/A   Partly Cloudy
11:30 AM 62.6 °F 51.8 °F 68% 29.89 in 6.2 mi West 5.8 mph - N/A   Partly Cloudy
12:00 PM 65 °F 49 °F 47% 29.91 in - West 11.5 mph - -  
12:00 PM 62.6 °F 51.8 °F 68% 29.89 in 6.2 mi WSW 9.2 mph - N/A   Partly Cloudy
12:30 PM 64.4 °F 53.6 °F 68% 29.89 in 6.2 mi WSW 10.4 mph - N/A   Partly Cloudy
1:00 PM 63 °F 53 °F 62% 29.89 in 19 mi WSW 13.8 mph - -   Scattered Clouds
1:00 PM 60.8 °F 53.6 °F 77% 29.89 in 6.2 mi WSW 11.5 mph - N/A   Partly Cloudy
1:30 PM 64.4 °F 55.4 °F 73% 29.86 in 6.2 mi WSW 11.5 mph - N/A   Partly Cloudy
2:00 PM 65 °F 52 °F 54% 29.86 in - WSW 13.8 mph - -  
2:00 PM 64.4 °F 55.4 °F 73% 29.86 in 6.2 mi SW 10.4 mph - N/A   Partly Cloudy
2:30 PM 64.4 °F 51.8 °F 64% 29.83 in 6.2 mi SW 15.0 mph - N/A   Partly Cloudy
3:00 PM 62 °F 52 °F 61% 29.84 in - SW 19.6 mph - -  
3:00 PM 62.6 °F 53.6 °F 72% 29.83 in 6.2 mi SW 18.4 mph - N/A   Partly Cloudy
3:30 PM 60.8 °F 51.8 °F 72% 29.83 in 6.2 mi SW 16.1 mph - N/A   Partly Cloudy
4:00 PM 60 °F 51 °F 64% 29.84 in 19 mi SSW 16.1 mph - -   Scattered Clouds
4:00 PM 60.8 °F 51.8 °F 72% 29.83 in 6.2 mi SW 13.8 mph - N/A   Partly Cloudy
4:30 PM 60.8 °F 51.8 °F 72% 29.83 in 6.2 mi SW 11.5 mph - N/A   Partly Cloudy
5:00 PM 60 °F 51 °F 64% 29.83 in - SW 15.0 mph - -  
5:00 PM 60.8 °F 51.8 °F 72% 29.83 in 6.2 mi SW 15.0 mph - N/A   Partly Cloudy
5:30 PM 59.0 °F 51.8 °F 77% 29.83 in 6.2 mi SW 15.0 mph - N/A   Partly Cloudy
6:00 PM 58 °F 51 °F 69% 29.84 in - WSW 16.1 mph - -  
6:00 PM 59.0 °F 51.8 °F 77% 29.83 in 6.2 mi WSW 18.4 mph - N/A   Partly Cloudy
6:30 PM 57.2 °F 50.0 °F 77% 29.83 in 6.2 mi SW 15.0 mph - N/A   Partly Cloudy
7:00 PM 56 °F 50 °F 75% 29.84 in 16 mi WSW 11.5 mph - -   Scattered Clouds
7:00 PM 57.2 °F 50.0 °F 77% 29.83 in 6.2 mi WSW 9.2 mph - N/A   Partly Cloudy
7:30 PM 57.2 °F 51.8 °F 82% 29.83 in 6.2 mi WSW 9.2 mph - N/A   Partly Cloudy
8:00 PM 57 °F 49 °F 68% 29.83 in - WSW 15.0 mph - -  
8:00 PM 57.2 °F 50.0 °F 77% 29.83 in 6.2 mi WSW 12.7 mph - N/A   Partly Cloudy
8:30 PM 57.2 °F 50.0 °F 77% 29.83 in 6.2 mi Variable 2.3 mph - N/A   Partly Cloudy
9:00 PM 55 °F 49 °F 75% 29.83 in - SW 11.5 mph - -  
9:00 PM 55.4 °F 50.0 °F 82% 29.83 in 6.2 mi South 3.5 mph - N/A   Partly Cloudy
9:30 PM 57.2 °F 50.0 °F 77% 29.80 in 6.2 mi SSW 8.1 mph - N/A   Partly Cloudy
10:00 PM 55 °F 50 °F 76% 29.82 in 16 mi SSW 5.8 mph - -   Scattered Clouds
10:00 PM 55.4 °F 50.0 °F 82% 29.80 in 6.2 mi Variable 2.3 mph - N/A   Partly Cloudy
10:30 PM 53.6 °F 50.0 °F 88% 29.80 in 6.2 mi SSW 3.5 mph - N/A   Partly Cloudy
11:00 PM 56 °F 50 °F 73% 29.81 in - WSW 10.4 mph - -  
11:00 PM 57.2 °F 50.0 °F 77% 29.80 in 6.2 mi SW 10.4 mph - N/A   Partly Cloudy
11:30 PM 57.2 °F 50.0 °F 77% 29.80 in 6.2 mi SW 12.7 mph - N/A   Partly Cloudy